Stations météo

réclame
Mon MeteoGroup
Caen, France (7027): Température de l'air & dewpoint: 28.06.2020 15:00:00 - 04.07.2020 15:00:00 (CEST)Caen, France (7027): Température de l'air 5cm: 28.06.2020 15:00:00 - 04.07.2020 15:00:00 (CEST)Caen, France (7027): Température de l'air -20cm & Température de l'air -100cm: 28.06.2020 15:00:00 - 04.07.2020 15:00:00 (CEST)Caen, France (7027): Vitesse du vent & gusts: 28.06.2020 15:00:00 - 04.07.2020 15:00:00 (CEST)Caen, France (7027): Direction du vent: 28.06.2020 15:00:00 - 04.07.2020 15:00:00 (CEST)Caen, France (7027): reduced air pressure: 28.06.2020 15:00:00 - 04.07.2020 15:00:00 (CEST)Caen, France (7027): visibility: 28.06.2020 15:00:00 - 04.07.2020 15:00:00 (CEST)Caen, France (7027): Ensoleillement: 28.06.2020 15:00:00 - 04.07.2020 15:00:00 (CEST)Caen, France (7027): Quantités de précipitations: 28.06.2020 15:00:00 - 04.07.2020 15:00:00 (CEST)
Date & Time tt [°C] td [°C] tt 5cm [°C] tt -20cm [°C] tt -100cm [°C] ff [km/h] ff [knt] fx [km/h] fx [knt] dd ppp [hPa] vv [km] sd [min] rr [mm]
04.07.2020 15:00:00 - - - - - - - - - - - - - -
04.07.2020 14:00:00 21,1 16,5 23,2 17,8 16,5 36 19 55 30 SW 1016,9 32 2 0,0
04.07.2020 13:00:00 21,6 16,8 22,3 17,8 16,5 33 18 56 30 SW 1017,0 37 9 0,0
04.07.2020 12:00:00 19,7 15,8 20,8 17,8 16,5 33 18 57 31 SW 1017,1 42 8 0,0
04.07.2020 11:00:00 19,3 15,2 19,4 17,8 16,5 32 17 53 29 SW 1017,4 19 14 0,0
04.07.2020 10:00:00 18,1 14,2 17,8 17,8 16,5 31 17 48 26 SW 1017,5 55 1 0,0
04.07.2020 09:00:00 16,5 13,6 16,3 17,9 16,5 26 14 47 26 SSW 1017,6 46 0 0,0
04.07.2020 08:00:00 16,3 13,0 15,8 17,9 16,5 28 15 44 24 SSW 1017,3 40 0 0,0
04.07.2020 07:00:00 15,8 12,4 14,9 18,0 16,5 21 12 36 19 SSW 1017,3 46 0 0,0
04.07.2020 06:00:00 15,2 12,0 14,5 18,0 16,5 21 11 36 19 SSW 1017,8 38 0 0,0
04.07.2020 05:00:00 15,2 11,8 14,1 18,0 16,5 22 12 37 20 SSW 1017,8 44 0 0,0
04.07.2020 04:00:00 15,0 11,2 14,3 18,0 16,5 23 12 37 20 SW 1018,5 44 0 0,0
04.07.2020 03:00:00 15,2 10,6 14,5 18,1 16,5 20 11 38 20 SSW 1018,8 49 0 0,0
04.07.2020 02:00:00 15,2 10,6 13,5 18,2 16,5 19 10 31 17 SSW 1019,2 51 0 0,0
04.07.2020 01:00:00 15,1 10,9 13,3 18,2 16,5 13 7 30 16 SW 1019,6 53 0 0,0
04.07.2020 00:00:00 15,5 11,3 11,8 18,2 16,5 15 8 24 13 SW 1019,9 52 0 0,0
03.07.2020 23:00:00 15,4 12,2 12,9 18,2 16,5 11 6 16 9 SW 1019,9 44 0 0,0
03.07.2020 22:00:00 16,9 12,0 14,8 18,1 16,5 11 6 22 12 WSW 1019,6 41 15 0,0
03.07.2020 21:00:00 18,8 11,4 17,9 18,1 16,5 18 10 34 18 WSW 1019,6 50 35 0,0
03.07.2020 20:00:00 20,2 11,1 20,5 18,0 16,5 24 13 37 20 WSW 1019,5 44 20 0,0
03.07.2020 19:00:00 20,2 10,9 21,0 18,0 16,5 19 11 38 20 WSW 1019,6 48 19 0,0
03.07.2020 18:00:00 20,5 10,3 22,1 17,9 16,5 22 12 36 20 WSW 1020,1 40 25 0,0
03.07.2020 17:00:00 20,7 10,8 22,6 17,8 16,5 18 10 39 21 WSW 1020,5 34 25 0,0
03.07.2020 16:00:00 19,6 10,3 21,3 17,8 16,5 23 13 40 21 WSW 1021,0 24 23 0,0
03.07.2020 15:00:00 20,9 9,8 21,7 17,7 16,5 22 12 40 22 WSW 1020,7 21 33 0,0
03.07.2020 14:00:00 18,7 11,0 20,1 17,7 16,5 21 11 37 20 W 1021,4 22 10 0,0
03.07.2020 13:00:00 18,5 11,6 17,5 17,7 16,5 21 11 33 18 WSW 1021,5 45 10 0,0
03.07.2020 12:00:00 17,5 11,1 18,4 17,8 16,5 17 9 31 17 WSW 1021,4 44 16 0,0
03.07.2020 11:00:00 17,5 11,1 18,9 17,8 16,5 18 10 30 16 WSW 1021,1 38 28 0,0
03.07.2020 10:00:00 16,3 11,7 16,6 17,8 16,5 16 9 32 18 WSW 1021,0 28 29 0,0
03.07.2020 09:00:00 16,3 12,5 15,3 17,9 16,5 16 8 26 14 W 1020,9 22 60 0,0
03.07.2020 08:00:00 14,3 11,6 11,9 18,0 16,5 16 8 24 13 W 1020,9 23 53 0,2
03.07.2020 07:00:00 12,7 11,3 11,1 18,1 16,5 16 9 24 13 W 1020,7 13 24 0,0
03.07.2020 06:00:00 12,1 11,0 11,1 18,1 16,5 15 8 24 13 W 1020,2 18 0 0,0
03.07.2020 05:00:00 12,5 11,2 10,8 18,2 16,5 19 10 26 14 W 1019,8 17 0 0,0
03.07.2020 04:00:00 12,2 11,1 11,0 18,3 16,5 15 8 24 13 WSW 1019,8 17 0 0,0
03.07.2020 03:00:00 12,3 11,0 10,9 18,3 16,5 14 8 21 12 WSW 1019,7 19 0 0,0
03.07.2020 02:00:00 12,1 11,0 10,1 18,4 16,5 14 8 20 11 WSW 1019,8 25 0 0,0
03.07.2020 01:00:00 11,7 10,4 10,1 18,4 16,5 10 5 19 10 WSW 1019,6 23 0 0,0
03.07.2020 00:00:00 12,0 10,4 10,2 18,4 16,5 10 6 18 10 W 1019,5 27 0 0,0
02.07.2020 23:00:00 12,6 10,5 10,5 18,4 16,5 11 6 22 12 WSW 1019,1 35 0 0,0
02.07.2020 22:00:00 14,7 11,1 13,2 18,4 16,5 13 7 29 16 W 1018,3 36 41 0,0
02.07.2020 21:00:00 16,8 10,9 16,2 18,3 16,5 21 12 36 20 W 1017,9 24 28 0,0
02.07.2020 20:00:00 18,3 11,8 19,0 18,3 16,5 24 13 36 20 WNW 1017,4 23 32 0,0
02.07.2020 19:00:00 19,1 10,9 19,3 18,2 16,5 20 11 42 23 W 1016,7 46 25 0,0
02.07.2020 18:00:00 19,9 11,1 21,1 18,2 16,5 24 13 40 22 W 1016,4 60 40 0,0
02.07.2020 17:00:00 20,5 10,6 20,8 18,2 16,5 24 13 43 23 W 1016,0 60 39 0,0
02.07.2020 16:00:00 20,3 11,8 18,4 18,2 16,5 24 13 40 22 W 1015,8 25 25 0,0
02.07.2020 15:00:00 17,8 11,4 19,0 18,2 16,5 25 14 45 25 W 1015,9 43 9 0,0
02.07.2020 14:00:00 17,7 10,8 19,0 18,2 16,5 30 16 44 24 W 1015,6 47 6 0,0
02.07.2020 13:00:00 18,0 11,1 16,3 18,2 16,5 24 13 39 21 WSW 1014,9 60 12 0,0
02.07.2020 12:00:00 17,7 11,0 19,4 18,2 16,5 23 12 36 19 WSW 1014,5 42 41 0,0
02.07.2020 11:00:00 16,1 12,1 16,2 18,3 16,5 22 12 36 20 WSW 1014,5 48 2 0,0
02.07.2020 10:00:00 15,4 12,0 14,8 18,3 16,5 18 10 34 18 W 1014,2 29 0 0,0
02.07.2020 09:00:00 15,0 12,3 14,9 18,4 16,5 17 9 29 16 SW 1013,8 25 9 0,0
02.07.2020 08:00:00 14,4 12,1 12,7 18,4 16,4 20 11 29 16 WSW 1013,4 28 19 0,0
02.07.2020 07:00:00 13,0 11,6 11,9 18,5 16,5 12 6 22 12 WSW 1013,0 14 13 0,0
02.07.2020 06:00:00 12,6 11,2 10,7 18,6 16,5 10 5 16 9 WSW 1012,8 24 0 0,0
02.07.2020 05:00:00 13,7 11,4 13,0 18,6 16,5 11 6 26 14 WSW 1012,6 28 0 0,0
02.07.2020 04:00:00 14,2 11,2 13,8 18,6 16,5 18 10 30 16 W 1012,6 26 0 0,0
02.07.2020 03:00:00 14,7 12,4 14,3 18,7 16,5 15 8 29 16 W 1012,3 36 0 0,0
02.07.2020 02:00:00 15,2 13,4 14,8 18,7 16,5 14 8 23 12 WSW 1011,9 48 0 0,0
02.07.2020 01:00:00 15,3 13,1 14,8 18,7 16,5 15 8 25 14 WSW 1011,7 54 0 0,0
02.07.2020 00:00:00 15,1 13,5 14,1 18,7 16,5 12 7 25 13 W 1011,6 44 0 0,0
01.07.2020 23:00:00 15,3 13,3 14,2 18,7 16,5 15 8 29 16 W 1011,3 47 0 0,0
01.07.2020 22:00:00 15,6 13,6 14,8 18,7 16,5 18 10 34 19 W 1010,7 31 0 0,0
01.07.2020 21:00:00 18,5 13,6 18,0 18,6 16,5 15 8 22 12 W 1010,3 42 0 0,0
01.07.2020 20:00:00 19,1 13,3 19,5 18,6 16,5 15 8 28 15 W 1010,0 45 0 0,0
01.07.2020 19:00:00 19,6 13,1 21,0 18,5 16,5 20 11 32 18 W 1010,0 49 6 0,0
01.07.2020 18:00:00 19,4 13,1 20,5 18,4 16,5 21 11 37 20 W 1010,1 44 0 0,0
01.07.2020 17:00:00 20,2 14,6 22,4 18,3 16,4 21 12 33 18 WNW 1010,0 39 0 0,0
01.07.2020 16:00:00 20,7 13,2 23,0 18,2 16,4 21 11 42 23 W 1009,6 30 28 0,0
01.07.2020 15:00:00 20,5 12,5 23,5 18,2 16,4 27 15 48 26 W 1009,5 23 29 0,0
01.07.2020 14:00:00 20,3 12,8 23,4 18,1 16,5 24 13 45 25 W 1009,4 24 19 0,0
01.07.2020 13:00:00 20,3 13,5 23,6 18,1 16,5 29 16 47 25 W 1009,1 24 51 0,0
01.07.2020 12:00:00 19,3 13,9 22,7 18,1 16,5 27 15 43 23 W 1009,0 27 42 0,0
01.07.2020 11:00:00 18,7 15,2 21,8 18,1 16,5 23 12 38 20 WSW 1008,8 31 54 0,0
01.07.2020 10:00:00 17,7 15,3 16,3 18,1 16,5 23 13 35 19 WSW 1008,7 40 26 0,2
01.07.2020 09:00:00 15,7 15,1 16,0 18,1 16,5 14 7 19 11 W 1008,9 4,7 0 0,6
01.07.2020 08:00:00 15,4 14,9 15,2 18,1 16,4 10 5 35 19 NW 1008,4 2,8 0 1,4
01.07.2020 07:00:00 17,7 16,0 16,6 18,2 16,5 18 10 33 18 SW 1007,6 54 0 0,0
01.07.2020 06:00:00 17,3 16,0 16,5 18,2 16,5 14 7 29 16 SSW 1007,3 41 0 0,2
01.07.2020 05:00:00 17,2 16,1 16,6 18,2 16,5 19 11 29 16 SSW 1007,5 6 0 1,6
01.07.2020 04:00:00 17,4 16,1 16,6 18,2 16,5 18 10 34 18 SSW 1008,0 8 0 0,8
01.07.2020 03:00:00 17,8 16,0 16,7 18,3 16,5 20 11 33 18 SSW 1008,1 60 0 0,0
01.07.2020 02:00:00 17,7 15,9 16,7 18,2 16,5 19 10 30 16 SSW 1008,7 57 0 0,4
01.07.2020 01:00:00 18,1 15,9 16,9 18,2 16,5 17 9 31 17 SSW 1009,2 43 0 0,4
01.07.2020 00:00:00 18,5 15,9 17,0 18,2 16,5 16 8 32 17 SSW 1009,3 51 0 0,0
30.06.2020 23:00:00 19,2 15,7 18,2 18,2 16,5 14 7 27 15 SW 1009,5 49 0 0,0
30.06.2020 22:00:00 19,7 15,3 18,7 18,2 16,5 17 9 35 19 SW 1009,1 44 0 0,0
30.06.2020 21:00:00 20,6 15,6 20,2 18,0 16,5 21 12 42 23 SW 1009,2 38 0 0,0
30.06.2020 20:00:00 21,8 15,9 21,7 18,1 16,5 27 15 44 24 SW 1009,0 42 7 0,0
30.06.2020 19:00:00 22,6 15,7 23,2 18,0 16,5 27 14 41 22 WSW 1009,2 35 11 0,0
30.06.2020 18:00:00 23,8 17,1 23,5 18,0 16,5 28 15 41 22 SW 1009,5 60 8 0,0
30.06.2020 17:00:00 22,6 15,9 22,9 17,9 16,5 20 11 39 21 WSW 1009,8 42 1 0,0
30.06.2020 16:00:00 22,4 16,0 23,7 17,9 16,5 23 12 39 21 WSW 1010,2 52 0 0,0
30.06.2020 15:00:00 22,3 15,9 24,2 17,9 16,5 22 12 42 23 SW 1010,3 53 6 0,0
30.06.2020 14:00:00 21,7 16,2 21,2 17,9 16,5 21 11 37 20 SW 1010,4 20 0 0,0
30.06.2020 13:00:00 19,2 15,3 20,1 17,8 16,5 22 12 38 21 SSW 1010,8 36 0 0,0
30.06.2020 12:00:00 19,0 15,3 20,5 17,8 16,5 21 12 40 22 SW 1010,9 36 0 0,0
30.06.2020 11:00:00 17,9 14,8 19,5 17,9 16,5 24 13 46 25 SSW 1011,1 34 1 0,0
30.06.2020 10:00:00 17,1 14,4 17,9 17,9 16,5 18 10 36 19 SSW 1011,4 44 0 0,0
30.06.2020 09:00:00 15,9 13,7 15,5 18,0 16,5 21 11 35 19 S 1011,5 14 0 0,0
30.06.2020 08:00:00 14,8 13,0 14,7 18,0 16,5 18 10 31 17 SSW 1011,9 20 0 0,0
30.06.2020 07:00:00 14,3 12,3 13,6 18,1 16,5 16 9 29 16 S 1012,0 30 5 0,0
30.06.2020 06:00:00 14,1 12,0 13,7 18,1 16,5 16 8 29 16 SSW 1012,4 31 0 0,0
30.06.2020 05:00:00 14,4 11,5 13,4 18,2 16,5 17 9 28 15 SSW 1012,7 35 0 0,0
30.06.2020 04:00:00 13,9 10,7 13,0 18,2 16,5 13 7 22 12 SSW 1013,2 35 0 0,0
30.06.2020 03:00:00 13,6 10,6 11,9 18,3 16,5 15 8 22 12 SSW 1013,5 32 0 0,0
30.06.2020 02:00:00 12,9 10,4 11,6 18,3 16,5 7 4 10 6 S 1014,2 32 0 0,0
30.06.2020 01:00:00 12,8 10,3 11,2 18,3 16,5 9 5 16 9 S 1014,8 33 0 0,0
30.06.2020 00:00:00 13,2 10,2 11,0 18,3 16,5 13 7 22 12 SW 1015,1 31 0 0,0
29.06.2020 23:00:00 13,0 9,4 10,7 18,4 16,5 11 6 19 11 SW 1015,2 31 0 0,0
29.06.2020 22:00:00 15,0 9,1 13,3 18,3 16,5 13 7 27 15 W 1015,1 40 35 0,0
29.06.2020 21:00:00 16,9 9,3 16,9 18,4 16,5 19 11 37 20 W 1015,1 32 53 0,0
29.06.2020 20:00:00 17,3 9,7 17,8 18,3 16,5 23 13 38 21 W 1015,0 36 8 0,0
29.06.2020 19:00:00 18,0 9,3 18,9 18,3 16,5 29 16 44 24 WSW 1015,1 18 39 0,0
29.06.2020 18:00:00 19,3 9,8 20,5 18,2 16,5 29 16 48 26 W 1015,5 19 51 0,0
29.06.2020 17:00:00 18,8 8,4 20,0 18,2 16,5 32 17 60 33 W 1015,8 22 28 0,0
29.06.2020 16:00:00 19,0 8,6 21,0 18,2 16,5 34 19 56 30 WSW 1016,1 24 37 0,0
29.06.2020 15:00:00 18,1 9,2 18,9 18,2 16,5 33 18 55 30 WSW 1016,2 27 21 0,0
29.06.2020 14:00:00 17,2 10,1 17,3 18,2 16,5 26 14 55 30 W 1016,6 26 15 0,0
29.06.2020 13:00:00 16,5 9,4 16,2 18,3 16,5 30 16 45 25 W 1016,9 21 5 0,0
29.06.2020 12:00:00 16,6 8,0 16,9 18,3 16,5 28 15 46 25 WSW 1016,6 49 6 0,0
29.06.2020 11:00:00 15,7 8,4 17,1 18,4 16,5 29 16 47 25 WSW 1016,6 47 30 0,0
29.06.2020 10:00:00 16,0 7,7 15,0 18,4 16,5 28 15 44 24 WSW 1016,3 56 30 0,0
29.06.2020 09:00:00 14,4 9,4 14,8 18,6 16,5 21 11 32 18 WSW 1016,1 31 21 0,0
29.06.2020 08:00:00 14,2 10,6 12,6 18,6 16,5 18 10 25 14 WSW 1015,9 20 60 0,0
29.06.2020 07:00:00 12,5 10,0 11,1 18,7 16,5 14 8 29 16 WSW 1015,6 35 8 0,0
29.06.2020 06:00:00 11,7 9,4 9,5 18,8 16,5 19 10 28 15 WSW 1015,4 34 0 0,0
29.06.2020 05:00:00 10,9 9,2 9,2 18,9 16,5 13 7 21 12 WSW 1015,5 37 0 0,0
29.06.2020 04:00:00 11,3 9,2 9,8 18,9 16,4 13 7 20 11 SW 1015,6 40 0 0,0
29.06.2020 03:00:00 12,0 9,6 10,1 19,0 16,4 13 7 18 10 WSW 1015,7 41 0 0,0
29.06.2020 02:00:00 12,3 9,7 10,3 19,0 16,4 12 7 18 10 WSW 1015,9 45 0 0,0
29.06.2020 01:00:00 13,4 10,0 12,5 19,0 16,5 9 5 25 13 W 1016,0 48 0 0,0
29.06.2020 00:00:00 14,1 9,9 12,9 19,1 16,5 14 8 26 14 W 1015,9 47 0 0,0
28.06.2020 23:00:00 14,4 9,6 13,6 19,1 16,4 14 7 26 14 W 1015,9 58 0 0,0
28.06.2020 22:00:00 15,1 9,9 14,5 19,0 16,4 16 9 28 15 WNW 1015,4 55 25 0,0
28.06.2020 21:00:00 17,3 10,4 16,5 19,0 16,4 18 10 34 18 W 1015,1 32 44 0,0
28.06.2020 20:00:00 19,0 11,1 20,8 18,9 16,4 21 12 40 21 W 1014,9 30 56 0,0
28.06.2020 19:00:00 20,6 10,4 22,2 18,9 16,4 27 15 45 24 W 1014,6 35 52 0,0
28.06.2020 18:00:00 21,5 9,4 22,2 18,8 16,4 23 12 40 21 SW 1014,8 44 43 0,0
28.06.2020 17:00:00 20,3 8,9 22,4 18,7 16,4 22 12 46 25 WSW 1015,2 32 45 0,0
28.06.2020 16:00:00 21,3 8,9 22,6 18,6 16,4 28 15 54 29 W 1015,3 31 50 0,0
28.06.2020 15:00:00 20,4 9,0 23,8 18,6 16,4 25 14 50 27 WSW 1015,5 23 51 0,0

tt = Température de l'air
td = dewpoint
tt 5cm = Température de l'air 5cm
tt -20cm = Température de l'air -20cm
tt -100cm = Température de l'air -100cm
ff = Vitesse du vent
fx = gusts
dd = Direction du vent
ppp = reduced air pressure
vv = visibility
sd = Ensoleillement
rr = Quantités de précipitations

stations d'obs. à proximité